sat.trackr.live / text

‹ back to catalog

STARLINK-35188

NORAD 65522 · 2025-200C

PAYLOAD ACTIVE UNKNOWN

§ Identity

Operator
Country
US
Launch date
2025-09-06
Launch site
AFWTR
Launch vehicle
Mass (kg)
RCS (m²)

Purposes: comms

External: N2YO · Heavens-Above · Gunter

§ Orbital elements

Epoch: 2026-05-25T02:33:51.427872Z

Period
95.64 min
Inclination
97.4462°
Eccentricity
0.0002449
Mean motion
15.05660507 rev/d
Perigee alt
547.8 km
Apogee alt
551.2 km
Semi-major
6,927.6 km
B*
2.6154e-4
RAAN
214.8209°
Arg perigee
137.0496°
Mean anomaly
223.0922°
Rev number
4,063

§ Raw data

STARLINK-351881 65522U 25200C   26145.10684523  .00003718  00000+0  26154-3 0  99952 65522  97.4462 214.8209 0002449 137.0496 223.0922 15.05660507 40637

JSON: /api/v1/satellites/65522 · /tle

For live sub-satellite position, see the globe view (requires WebGL).

§ Visibility from observer

Set your observer location to see the next 7 days of passes ≥ 10°. The values pass through the URL so the page stays shareable.

No JS? Fill the form by hand. The geolocation button needs JavaScript.